TimeCST,TemperatureF,Dew PointF,Humidity,Sea Level PressureIn,VisibilityMPH,Wind Direction,Wind SpeedMPH,Gust SpeedMPH,PrecipitationIn,Events,Conditions,WindDirDegrees,DateUTC
12:56 AM,24.1,19.0,81,30.05,10.0,West,5.8,-,N/A,,Overcast,260,2013-12-26 06:56:00
1:56 AM,24.1,21.0,88,30.04,10.0,West,3.5,-,N/A,,Overcast,280,2013-12-26 07:56:00
2:56 AM,21.9,19.9,92,30.03,10.0,Calm,Calm,-,N/A,,Overcast,0,2013-12-26 08:56:00
3:56 AM,21.9,19.9,92,30.01,10.0,East,3.5,-,N/A,,Overcast,100,2013-12-26 09:56:00
4:56 AM,21.9,21.0,96,30.01,5.0,SE,3.5,-,0.00,Snow,Light Snow,140,2013-12-26 10:56:00
5:49 AM,21.9,21.0,96,29.95,6.0,SSW,3.5,-,0.00,Snow,Light Snow,210,2013-12-26 11:49:00
5:56 AM,21.9,21.0,96,30.03,5.0,SW,3.5,-,0.00,Snow,Light Snow,230,2013-12-26 11:56:00
6:56 AM,21.9,21.0,96,30.01,10.0,East,5.8,-,0.00,,Overcast,100,2013-12-26 12:56:00
7:22 AM,19.9,19.0,96,29.94,10.0,ESE,12.7,-,0.00,,Overcast,110,2013-12-26 13:22:00
7:56 AM,19.0,17.1,92,30.03,10.0,ESE,10.4,-,0.00,,Overcast,110,2013-12-26 13:56:00
8:56 AM,19.9,18.0,92,30.04,10.0,SE,6.9,-,N/A,,Overcast,140,2013-12-26 14:56:00
9:56 AM,19.9,18.0,92,30.04,10.0,SSE,8.1,-,N/A,,Overcast,150,2013-12-26 15:56:00
10:48 AM,21.9,19.9,92,29.98,10.0,SE,3.5,-,N/A,,Overcast,140,2013-12-26 16:48:00
10:56 AM,21.9,19.9,92,30.06,10.0,SE,3.5,-,N/A,,Overcast,140,2013-12-26 16:56:00
11:12 AM,21.9,19.9,92,29.98,10.0,SSE,4.6,-,N/A,,Overcast,150,2013-12-26 17:12:00
11:56 AM,24.1,21.0,88,30.05,10.0,South,4.6,-,N/A,,Overcast,170,2013-12-26 17:56:00
12:42 PM,25.0,21.9,88,29.96,10.0,Calm,Calm,-,N/A,,Overcast,0,2013-12-26 18:42:00
12:56 PM,25.0,23.0,92,30.03,10.0,SSE,4.6,-,N/A,,Overcast,160,2013-12-26 18:56:00
1:56 PM,32.0,28.0,85,30.03,10.0,NW,16.1,-,N/A,,Overcast,320,2013-12-26 19:56:00
2:56 PM,30.0,27.0,88,30.06,10.0,NW,16.1,-,N/A,,Overcast,320,2013-12-26 20:56:00
3:56 PM,30.0,27.0,88,30.09,10.0,NW,12.7,-,N/A,,Overcast,320,2013-12-26 21:56:00
4:56 PM,30.0,27.0,88,30.10,10.0,NW,6.9,-,N/A,,Overcast,320,2013-12-26 22:56:00
5:56 PM,30.0,26.1,85,30.11,10.0,WNW,13.8,-,N/A,,Overcast,300,2013-12-26 23:56:00
6:56 PM,30.0,26.1,85,30.12,10.0,West,3.5,-,N/A,,Overcast,260,2013-12-27 00:56:00
7:56 PM,30.0,26.1,85,30.11,10.0,WSW,6.9,-,N/A,,Overcast,250,2013-12-27 01:56:00
8:45 PM,26.1,24.1,92,30.03,10.0,SW,5.8,-,N/A,,Partly Cloudy,220,2013-12-27 02:45:00
8:56 PM,26.1,24.1,92,30.10,10.0,SW,5.8,-,N/A,,Partly Cloudy,220,2013-12-27 02:56:00
9:56 PM,23.0,21.9,96,30.08,10.0,SSW,9.2,-,N/A,,Clear,200,2013-12-27 03:56:00
10:56 PM,23.0,21.0,92,30.05,10.0,South,12.7,-,N/A,,Clear,180,2013-12-27 04:56:00
11:56 PM,21.0,19.9,96,30.03,10.0,SSW,16.1,-,N/A,,Clear,200,2013-12-27 05:56:00